User: anonymous   Login
Location: Colossi of Memnon
(25.7167°N, 32.6167°E)
Time: 00:50:32
(UTC+00:00)
Language:

CSL-04 DEB - Orbit

View from above orbital plane
View from above orbital plane
View from above satellite
View from above satellite

Ground track
Ground track

The orbit data is extracted from the following two-line orbital elements,

1 26121U 99057H   21138.49960504  .00000583  00000-0  60061-4 0  9997
2 26121  98.7577 333.1441 0058469 203.3273 156.5289 14.93795244147598
Epoch (UTC): 18 May 2021 11:59:25
Eccentricity: 0.0058469
inclination: 98.7577°
perigee height: 545 km
apogee height: 627 km
right ascension of ascending node: 333.1441°
argument of perigee: 203.3273°
revolutions per day: 14.93795244
mean anomaly at epoch: 156.5289°
orbit number at epoch: 14759

The dashed part of the orbit path shows where the satellite is in the earth's shadow,  

DLR